Hourly Weather Roundup
Issued by NWS Central Illinois

Home | Current Version | Previous Version | Text Only | Print | Product List | Glossary On
Versions: 1 2 3 4 5 6 7 8 9 10 11 12 13 14 15 16 17 18 19 20 21 22 23 24 25 26 27 28 29 30 31 32 33 34 35 36 37 38 39 40 41 42 43 44 45 46 47 48 49 50
000
NZUS43 KILX 290110
HWRILX

AREA WEATHER ROUNDUP
NATIONAL WEATHER SERVICE, LINCOLN IL
800 PM CDT THU AUG 28 2014


CITY           SKY/WX    TMP DP  RH WIND       PRES   REMARKS
BLOOMINGTON    CLOUDY    75  69  81 NE5       30.04R
CHAMPAIGN      MOCLDY    74  70  87 E6        30.03R
DECATUR        MOCLDY    76  72  87 E7        30.00S
FLORA          MOCLDY    77  71  81 W7        30.02R
GALESBURG      CLOUDY    70  68  94 E9        29.97S
JACKSONVILLE   MOCLDY    76  70  81 N9        29.99S
LACON          RAIN      70  67  90 E8        30.01R
LAWRENCEVILLE  MOCLDY    79  74  84 E3        30.00R HX  82
LITCHFIELD     MOCLDY    77  70  79 S15G21    30.00R
$$


CITY           SKY/WX    TMP DP  RH WIND       PRES   REMARKS
LINCOLN        TSTM      76  72  89 NW8       29.97S
MACOMB         CLOUDY    70  70 100 SE6       30.00R
MATTOON        PTCLDY    77  71  82 SE5       30.01R
MT CARMEL AP   CLOUDY    81  77  89 CALM      30.00R HX  88
OLNEY-NOBLE AP CLOUDY    77  72  83 CALM      30.02R
PARIS          PTCLDY    73  70  90 CALM      30.03R
PEORIA         LGT RAIN  72  69  90 E5        30.01S
PONTIAC        CLOUDY    75  70  83 E3        30.03R
RANTOUL        MOCLDY    76  66  69 E5        30.04R
ROBINSON       MOCLDY    79  74  86 NE3       30.01R HX  82
SPRINGFIELD    TSTM      74  71  91 N21G33    30.05R VSB 3/4
TAYLORVILLE      N/A     79  73  83 SE7       29.98S HX  82
$$

...REGIONAL REPORTS...


CITY           SKY/WX    TMP DP  RH WIND       PRES   REMARKS
CHICAGO O`HARE CLOUDY    71  58  63 E8        30.05S
KANKAKEE       MOCLDY    72  66  81 E3        30.04S
MOLINE         CLOUDY    69  67  93 E8        29.96F
MOUNT VERNON   CLOUDY    75  68  78 CALM      30.02R
PITTSFIELD     MOCLDY    77  69  76 NE7       29.96F
QUINCY         MOCLDY    74  70  87 E8        29.95R
ROCKFORD       CLOUDY    65  60  84 E9        30.04F
$$


CITY           SKY/WX    TMP DP  RH WIND       PRES   REMARKS
BURLINGTON     CLOUDY    71  70  96 E5        29.95R
CEDAR RAPIDS   CLOUDY    70  69  97 SE7       29.93F
DES MOINES     MOCLDY    76  71  85 E8        29.87F
KIRKSVILLE     CLEAR     77  73  87 E7        29.93S
OTTUMWA        CLEAR     70  68  93 SE6       29.91F
ST LOUIS       MOCLDY    81  69  67 SE14      29.98R HX  84
$$


CITY           SKY/WX    TMP DP  RH WIND       PRES   REMARKS
TERRE HAUTE    CLEAR     74  69  85 CALM      30.02S
EVANSVILLE     LGT RAIN  74  70  87 N6        30.01R
INDIANAPOLIS   PTCLDY    78  65  63 E9        30.03S HX  80
LAFAYETTE      PTCLDY    73  65  75 E7        30.03R
MADISON        CLOUDY    67  54  63 E9        30.04S
MILWAUKEE      CLOUDY    67  56  67 E8        30.07S
$$




USA.gov is the U.S. government's official web portal to all federal, state and local government web resources and services.